Hourly Data Report for October 23, 2015

All times are specified in Local Standard Time (LST). Add 1 hour to adjust for Daylight Saving Time where and when it is observed.

SAINT JOHN A
NEW BRUNSWICK

45°18'58.000" N
65°53'24.000" W
108.80 m
8104901
71609
YSJ

Download Data

Hourly Data (October 2015)
Hourly Data Report for October 23, 2015
Temp Definition
°C
Dew Point Temp Definition
°C
Rel Hum Definition
%
Wind Dir Definition
10's deg

Wind Spd Definition
km/h
Visibility Definition
km
Stn Press Definition
kPa
Hmdx Definition


Wind Chill Definition


Weather Definition


TIME
00:00 Legend Double Dagger 11.7 11.6 99 25 8 3.2 99.77     Fog
01:00 Legend Double Dagger 11.4 11.3 99 26 9 16.1 99.77     LegendNANA
02:00 Legend Double Dagger 10.9 8.3 84 32 27 16.1 99.78     Cloudy
03:00 Legend Double Dagger 9.4 5.0 74 30 16 24.1 99.81     LegendNANA
04:00 Legend Double Dagger 7.7 2.8 71 30 16 24.1 99.85     LegendNANA
05:00 Legend Double Dagger 6.2 2.3 76 28 13 24.1 99.90     Mainly Clear
06:00 Legend Double Dagger 4.7 0.8 76 31 21 24.1 100.01     LegendNANA
07:00 Legend Double Dagger 3.8 0.1 77 30 16 24.1 100.06     LegendNANA
08:00 Legend Double Dagger 4.1 -0.1 74 30 18 24.1 100.16     Mainly Clear
09:00 Legend Double Dagger 4.6 0.0 72 32 22 24.1 100.22     LegendNANA
10:00 Legend Double Dagger 5.6 -0.5 65 33 31 24.1 100.26     LegendNANA
11:00 Legend Double Dagger 6.2 -0.3 63 34 27 24.1 100.28     Mostly Cloudy
12:00 Legend Double Dagger 6.2 -0.5 62 33 23 24.1 100.34     LegendNANA
13:00 Legend Double Dagger 7.1 -0.6 58 33 27 24.1 100.38     LegendNANA
14:00 Legend Double Dagger 7.4 -0.1 59 34 20 24.1 100.39     Mostly Cloudy
15:00 Legend Double Dagger 7.2 -0.3 59 35 27 24.1 100.47     LegendNANA
16:00 Legend Double Dagger 6.9 -0.1 61 35 23 24.1 100.59     LegendNANA
17:00 Legend Double Dagger 6.4 0.5 66 35 25 24.1 100.67     Mostly Cloudy
18:00 Legend Double Dagger 5.9 0.5 68 35 20 24.1 100.78     LegendNANA
19:00 Legend Double Dagger 5.8 -0.5 64 35 26 24.1 100.87     LegendNANA
20:00 Legend Double Dagger 4.9 -1.3 64 36 24 24.1 100.94     Mostly Cloudy
21:00 Legend Double Dagger 3.6 -1.4 70 1 16 24.1 101.04     LegendNANA
22:00 Legend Double Dagger 2.4 -1.4 76 1 13 24.1 101.16     LegendNANA
23:00 Legend Double Dagger 1.8 -1.6 78 35 19 24.1 101.19     Mainly Clear

Notes on Data Quality.

Legend

  • E = Estimated
  • M = Missing
  • NA = Not Available
  • ‡ = Partner data that is not subject to review by the National Climate Archives
Date modified: